Time,TemperatureF,DewpointF,PressureIn,WindDirection,WindDirectionDegrees,WindSpeedMPH,WindSpeedGustMPH,Humidity,HourlyPrecipIn,Conditions,Clouds,dailyrainin,SoftwareType,DateUTC
2013-02-16 00:03:00,48.9,21.1,30.41,NNW,328,3.0,9.0,33,0.00,,OVC100,0.00,VWS V14.01,2013-02-16 06:03:00,
2013-02-16 00:08:00,48.8,21.7,30.41,NNW,329,7.0,7.0,34,0.00,,OVC100,0.00,VWS V14.01,2013-02-16 06:08:00,
2013-02-16 00:13:00,48.6,22.2,30.41,North,5,2.0,10.0,35,0.00,,OVC100,0.00,VWS V14.01,2013-02-16 06:13:00,
2013-02-16 00:18:00,48.5,22.8,30.41,West,271,9.0,9.0,36,0.00,,OVC100,0.00,VWS V14.01,2013-02-16 06:18:00,
2013-02-16 00:23:00,48.5,22.8,30.41,North,355,5.0,10.0,36,0.00,,OVC100,0.00,VWS V14.01,2013-02-16 06:23:00,
2013-02-16 00:28:00,48.3,22.6,30.41,North,5,2.0,6.0,36,0.00,,OVC100,0.00,VWS V14.01,2013-02-16 06:28:00,
2013-02-16 00:33:00,48.2,22.5,30.41,NNW,344,4.0,10.0,36,0.00,,OVC100,0.00,VWS V14.01,2013-02-16 06:33:00,
2013-02-16 00:38:00,48.0,22.3,30.41,NNW,346,3.0,9.0,36,0.00,,OVC100,0.00,VWS V14.01,2013-02-16 06:38:00,
2013-02-16 00:43:00,47.9,22.9,30.41,North,349,6.0,9.0,37,0.00,,OVC100,0.00,VWS V14.01,2013-02-16 06:43:00,
2013-02-16 00:48:00,47.7,23.4,30.41,NNW,328,11.0,11.0,38,0.00,,OVC100,0.00,VWS V14.01,2013-02-16 06:48:00,
2013-02-16 00:53:00,47.4,23.7,30.42,NNW,329,7.0,11.0,39,0.00,,OVC100,0.00,VWS V14.01,2013-02-16 06:53:00,
2013-02-16 00:58:00,47.3,24.2,30.42,NW,323,3.0,5.0,40,0.00,,CLR,0.00,VWS V14.01,2013-02-16 06:58:00,
2013-02-16 01:03:00,47.0,24.0,30.42,NW,305,2.0,7.0,40,0.00,,CLR,0.00,VWS V14.01,2013-02-16 07:03:00,
2013-02-16 01:08:00,46.7,24.3,30.42,NW,322,1.0,2.0,41,0.00,,CLR,0.00,VWS V14.01,2013-02-16 07:08:00,
2013-02-16 01:13:00,46.4,24.6,30.42,NW,314,2.0,6.0,42,0.00,,CLR,0.00,VWS V14.01,2013-02-16 07:13:00,
2013-02-16 01:18:00,46.1,24.3,30.42,NNW,337,5.0,6.0,42,0.00,,CLR,0.00,VWS V14.01,2013-02-16 07:18:00,
2013-02-16 01:23:00,45.8,24.0,30.42,NW,312,5.0,11.0,42,0.00,,CLR,0.00,VWS V14.01,2013-02-16 07:23:00,
2013-02-16 01:28:00,45.7,24.5,30.42,NW,320,2.0,6.0,43,0.00,,CLR,0.00,VWS V14.01,2013-02-16 07:28:00,
2013-02-16 01:33:00,45.4,24.2,30.42,North,350,5.0,6.0,43,0.00,,CLR,0.00,VWS V14.01,2013-02-16 07:33:00,
2013-02-16 01:38:00,45.1,24.0,30.42,North,360,9.0,9.0,43,0.00,,CLR,0.00,VWS V14.01,2013-02-16 07:38:00,
2013-02-16 01:43:00,44.9,23.8,30.42,NW,305,3.0,9.0,43,0.00,,CLR,0.00,VWS V14.01,2013-02-16 07:43:00,
2013-02-16 01:48:00,44.8,23.7,30.42,NW,315,5.0,7.0,43,0.00,,CLR,0.00,VWS V14.01,2013-02-16 07:48:00,
2013-02-16 01:53:00,44.6,23.5,30.42,NW,313,4.0,7.0,43,0.00,,CLR,0.00,VWS V14.01,2013-02-16 07:53:00,
2013-02-16 01:58:00,44.3,23.2,30.42,NW,320,1.0,6.0,43,0.00,,CLR,0.00,VWS V14.01,2013-02-16 07:58:00,
2013-02-16 02:03:00,44.1,23.6,30.42,NW,317,0.0,7.0,44,0.00,,CLR,0.00,VWS V14.01,2013-02-16 08:03:00,
2013-02-16 02:08:00,43.5,23.6,30.42,NW,317,3.0,5.0,45,0.00,,CLR,0.00,VWS V14.01,2013-02-16 08:08:00,
2013-02-16 02:13:00,43.1,23.7,30.42,NW,317,1.0,6.0,46,0.00,,CLR,0.00,VWS V14.01,2013-02-16 08:13:00,
2013-02-16 02:18:00,42.5,23.2,30.42,NW,317,4.0,4.0,46,0.00,,CLR,0.00,VWS V14.01,2013-02-16 08:18:00,
2013-02-16 02:23:00,42.3,23.0,30.42,NW,317,5.0,6.0,46,0.00,,CLR,0.00,VWS V14.01,2013-02-16 08:23:00,
2013-02-16 02:28:00,42.2,22.9,30.42,NW,315,2.0,5.0,46,0.00,,CLR,0.00,VWS V14.01,2013-02-16 08:28:00,
2013-02-16 02:33:00,42.2,22.4,30.42,NW,319,4.0,5.0,45,0.00,,CLR,0.00,VWS V14.01,2013-02-16 08:33:00,
2013-02-16 02:38:00,42.2,22.4,30.42,NNW,331,1.0,4.0,45,0.00,,CLR,0.00,VWS V14.01,2013-02-16 08:38:00,
2013-02-16 02:43:00,42.2,22.4,30.42,NNW,331,3.0,5.0,45,0.00,,CLR,0.00,VWS V14.01,2013-02-16 08:43:00,
2013-02-16 02:48:00,41.9,22.6,30.42,NNW,330,3.0,5.0,46,0.00,,CLR,0.00,VWS V14.01,2013-02-16 08:48:00,
2013-02-16 02:53:00,41.5,22.3,30.43,NNW,330,2.0,5.0,46,0.00,,CLR,0.00,VWS V14.01,2013-02-16 08:53:00,
2013-02-16 02:58:00,41.2,22.5,30.43,NNW,330,3.0,4.0,47,0.00,,CLR,0.00,VWS V14.01,2013-02-16 08:58:00,
2013-02-16 03:03:00,40.9,22.2,30.43,NNW,330,0.0,4.0,47,0.00,,CLR,0.00,VWS V14.01,2013-02-16 09:03:00,
2013-02-16 03:08:00,40.8,22.6,30.42,NNW,330,0.0,2.0,48,0.00,,CLR,0.00,VWS V14.01,2013-02-16 09:08:00,
2013-02-16 03:13:00,40.6,22.5,30.42,NNW,330,0.0,3.0,48,0.00,,CLR,0.00,VWS V14.01,2013-02-16 09:13:00,
2013-02-16 03:18:00,40.5,22.4,30.42,NNW,330,0.0,1.0,48,0.00,,CLR,0.00,VWS V14.01,2013-02-16 09:18:00,
2013-02-16 03:23:00,40.3,22.2,30.42,NNW,330,1.0,3.0,48,0.00,,CLR,0.00,VWS V14.01,2013-02-16 09:23:00,
2013-02-16 03:28:00,40.2,22.1,30.42,NNW,330,1.0,3.0,48,0.00,,CLR,0.00,VWS V14.01,2013-02-16 09:28:00,
2013-02-16 03:33:00,40.1,22.0,30.42,NNW,330,0.0,3.0,48,0.00,,CLR,0.00,VWS V14.01,2013-02-16 09:33:00,
2013-02-16 03:38:00,39.9,21.8,30.43,NNW,330,2.0,4.0,48,0.00,,CLR,0.00,VWS V14.01,2013-02-16 09:38:00,
2013-02-16 03:43:00,39.8,21.7,30.43,NNW,330,0.0,4.0,48,0.00,,CLR,0.00,VWS V14.01,2013-02-16 09:43:00,
2013-02-16 03:48:00,39.6,22.0,30.43,NNW,330,0.0,0.0,49,0.00,,CLR,0.00,VWS V14.01,2013-02-16 09:48:00,
2013-02-16 03:53:00,39.6,22.0,30.43,NNW,330,0.0,0.0,49,0.00,,CLR,0.00,VWS V14.01,2013-02-16 09:53:00,
2013-02-16 03:58:00,39.5,21.9,30.43,NNW,330,0.0,0.0,49,0.00,,CLR,0.00,VWS V14.01,2013-02-16 09:58:00,
2013-02-16 04:03:00,39.5,21.9,30.43,NNW,330,0.0,0.0,49,0.00,,CLR,0.00,VWS V14.01,2013-02-16 10:03:00,
2013-02-16 04:08:00,39.3,21.8,30.42,NNW,330,1.0,3.0,49,0.00,,CLR,0.00,VWS V14.01,2013-02-16 10:08:00,
2013-02-16 04:13:00,39.2,22.1,30.42,NNW,330,1.0,3.0,50,0.00,,CLR,0.00,VWS V14.01,2013-02-16 10:13:00,
2013-02-16 04:18:00,38.9,21.9,30.42,NNW,330,0.0,2.0,50,0.00,,CLR,0.00,VWS V14.01,2013-02-16 10:18:00,
2013-02-16 04:23:00,38.9,21.9,30.43,NNW,330,0.0,4.0,50,0.00,,CLR,0.00,VWS V14.01,2013-02-16 10:23:00,
2013-02-16 04:28:00,38.9,21.9,30.43,NNW,330,3.0,5.0,50,0.00,,CLR,0.00,VWS V14.01,2013-02-16 10:28:00,
2013-02-16 04:33:00,38.8,21.8,30.43,NNW,330,1.0,5.0,50,0.00,,CLR,0.00,VWS V14.01,2013-02-16 10:33:00,
2013-02-16 04:38:00,38.8,21.8,30.44,NNW,330,2.0,4.0,50,0.00,,CLR,0.00,VWS V14.01,2013-02-16 10:38:00,
2013-02-16 04:43:00,38.6,21.6,30.44,NNW,329,5.0,5.0,50,0.00,,CLR,0.00,VWS V14.01,2013-02-16 10:43:00,
2013-02-16 04:48:00,38.6,21.6,30.44,NNW,327,3.0,5.0,50,0.00,,CLR,0.00,VWS V14.01,2013-02-16 10:48:00,
2013-02-16 04:53:00,38.8,21.8,30.45,NW,321,3.0,5.0,50,0.00,,CLR,0.00,VWS V14.01,2013-02-16 10:53:00,
2013-02-16 04:58:00,38.8,21.8,30.45,NW,321,0.0,4.0,50,0.00,,CLR,0.00,VWS V14.01,2013-02-16 10:58:00,
2013-02-16 05:02:00,38.6,21.6,30.45,NW,321,0.0,4.0,50,0.00,,CLR,0.00,VWS V14.01,2013-02-16 11:02:00,
2013-02-16 05:07:00,38.3,21.8,30.45,NW,321,3.0,4.0,51,0.00,,CLR,0.00,VWS V14.01,2013-02-16 11:07:00,
2013-02-16 05:12:00,38.2,21.7,30.45,NW,321,0.0,4.0,51,0.00,,CLR,0.00,VWS V14.01,2013-02-16 11:12:00,
2013-02-16 05:17:00,38.0,22.0,30.45,NW,321,0.0,0.0,52,0.00,,CLR,0.00,VWS V14.01,2013-02-16 11:17:00,
2013-02-16 05:22:00,37.9,21.9,30.45,NW,321,0.0,0.0,52,0.00,,CLR,0.00,VWS V14.01,2013-02-16 11:22:00,
2013-02-16 05:27:00,37.8,21.8,30.45,NW,321,0.0,0.0,52,0.00,,CLR,0.00,VWS V14.01,2013-02-16 11:27:00,
2013-02-16 05:32:00,37.6,22.0,30.45,NW,321,0.0,0.0,53,0.00,,CLR,0.00,VWS V14.01,2013-02-16 11:32:00,
2013-02-16 05:37:00,37.6,22.0,30.45,NW,321,0.0,0.0,53,0.00,,CLR,0.00,VWS V14.01,2013-02-16 11:37:00,
2013-02-16 05:42:00,37.6,22.0,30.45,NW,321,0.0,0.0,53,0.00,,CLR,0.00,VWS V14.01,2013-02-16 11:42:00,
2013-02-16 05:47:00,37.5,22.4,30.45,NW,321,0.0,0.0,54,0.00,,CLR,0.00,VWS V14.01,2013-02-16 11:47:00,
2013-02-16 05:52:00,37.5,22.4,30.46,NW,321,0.0,0.0,54,0.00,,CLR,0.00,VWS V14.01,2013-02-16 11:52:00,
2013-02-16 05:57:00,37.6,22.5,30.46,NW,321,0.0,0.0,54,0.00,,CLR,0.00,VWS V14.01,2013-02-16 11:57:00,
2013-02-16 06:02:00,37.6,22.5,30.46,NW,321,0.0,0.0,54,0.00,,CLR,0.00,VWS V14.01,2013-02-16 12:02:00,
2013-02-16 06:07:00,37.8,22.7,30.47,NW,321,0.0,0.0,54,0.00,,CLR,0.00,VWS V14.01,2013-02-16 12:07:00,
2013-02-16 06:12:00,37.8,22.7,30.47,NW,321,0.0,0.0,54,0.00,,CLR,0.00,VWS V14.01,2013-02-16 12:12:00,
2013-02-16 06:17:00,37.6,22.5,30.47,NW,321,0.0,0.0,54,0.00,,CLR,0.00,VWS V14.01,2013-02-16 12:17:00,
2013-02-16 06:22:00,37.6,22.5,30.48,NW,321,0.0,0.0,54,0.00,,CLR,0.00,VWS V14.01,2013-02-16 12:22:00,
2013-02-16 06:27:00,37.5,22.4,30.48,NW,321,0.0,0.0,54,0.00,,CLR,0.00,VWS V14.01,2013-02-16 12:27:00,
2013-02-16 06:32:00,37.3,22.2,30.48,NW,321,0.0,0.0,54,0.00,,CLR,0.00,VWS V14.01,2013-02-16 12:32:00,
2013-02-16 06:37:00,37.3,22.2,30.47,NW,321,0.0,0.0,54,0.00,,CLR,0.00,VWS V14.01,2013-02-16 12:37:00,
2013-02-16 06:42:00,37.3,22.2,30.47,NW,321,0.0,0.0,54,0.00,,CLR,0.00,VWS V14.01,2013-02-16 12:42:00,
2013-02-16 06:47:00,37.3,22.2,30.47,NW,321,0.0,0.0,54,0.00,,CLR,0.00,VWS V14.01,2013-02-16 12:47:00,
2013-02-16 06:52:00,37.3,21.8,30.48,NW,321,0.0,0.0,53,0.00,,CLR,0.00,VWS V14.01,2013-02-16 12:52:00,
2013-02-16 06:57:00,37.3,21.8,30.48,NW,321,0.0,0.0,53,0.00,,CLR,0.00,VWS V14.01,2013-02-16 12:57:00,
2013-02-16 07:02:00,37.5,21.9,30.48,NW,321,0.0,0.0,53,0.00,,CLR,0.00,VWS V14.01,2013-02-16 13:02:00,
2013-02-16 07:07:00,37.5,21.9,30.48,NW,321,0.0,0.0,53,0.00,,CLR,0.00,VWS V14.01,2013-02-16 13:07:00,
2013-02-16 07:12:00,37.6,21.6,30.48,NW,321,1.0,4.0,52,0.00,,CLR,0.00,VWS V14.01,2013-02-16 13:12:00,
2013-02-16 07:17:00,37.6,21.6,30.48,NW,321,0.0,0.0,52,0.00,,CLR,0.00,VWS V14.01,2013-02-16 13:17:00,
2013-02-16 07:22:00,37.8,21.8,30.48,NW,321,0.0,0.0,52,0.00,,CLR,0.00,VWS V14.01,2013-02-16 13:22:00,
2013-02-16 07:27:00,37.8,21.8,30.48,NW,321,0.0,0.0,52,0.00,,CLR,0.00,VWS V14.01,2013-02-16 13:27:00,
2013-02-16 07:32:00,38.0,22.0,30.48,NW,321,0.0,0.0,52,0.00,,CLR,0.00,VWS V14.01,2013-02-16 13:32:00,
2013-02-16 07:37:00,38.0,22.0,30.48,NW,321,0.0,0.0,52,0.00,,CLR,0.00,VWS V14.01,2013-02-16 13:37:00,
2013-02-16 07:42:00,38.2,22.1,30.48,NW,321,0.0,0.0,52,0.00,,CLR,0.00,VWS V14.01,2013-02-16 13:42:00,
2013-02-16 07:47:00,38.5,22.4,30.48,NW,321,0.0,0.0,52,0.00,,CLR,0.00,VWS V14.01,2013-02-16 13:47:00,
2013-02-16 07:52:00,38.8,22.2,30.48,NW,321,0.0,0.0,51,0.00,,CLR,0.00,VWS V14.01,2013-02-16 13:52:00,
2013-02-16 07:57:00,39.2,23.1,30.48,NW,321,0.0,0.0,52,0.00,,CLR,0.00,VWS V14.01,2013-02-16 13:57:00,
2013-02-16 08:02:00,39.5,23.4,30.48,NW,321,0.0,0.0,52,0.00,,CLR,0.00,VWS V14.01,2013-02-16 14:02:00,
2013-02-16 08:07:00,39.8,23.6,30.49,NW,321,0.0,3.0,52,0.00,,CLR,0.00,VWS V14.01,2013-02-16 14:07:00,
2013-02-16 08:12:00,40.1,23.4,30.49,NW,321,1.0,4.0,51,0.00,,CLR,0.00,VWS V14.01,2013-02-16 14:12:00,
2013-02-16 08:17:00,40.5,23.8,30.49,NW,321,0.0,2.0,51,0.00,,CLR,0.00,VWS V14.01,2013-02-16 14:17:00,
2013-02-16 08:22:00,40.9,23.7,30.50,NW,321,2.0,2.0,50,0.00,,CLR,0.00,VWS V14.01,2013-02-16 14:22:00,
2013-02-16 08:27:00,41.2,23.5,30.50,NW,321,2.0,3.0,49,0.00,,CLR,0.00,VWS V14.01,2013-02-16 14:27:00,
2013-02-16 08:32:00,41.8,24.1,30.50,NW,321,0.0,4.0,49,0.00,,CLR,0.00,VWS V14.01,2013-02-16 14:32:00,
2013-02-16 08:37:00,42.2,23.9,30.50,NW,321,3.0,4.0,48,0.00,,CLR,0.00,VWS V14.01,2013-02-16 14:37:00,
2013-02-16 08:42:00,42.6,24.3,30.50,NW,321,2.0,5.0,48,0.00,,CLR,0.00,VWS V14.01,2013-02-16 14:42:00,
2013-02-16 08:47:00,43.1,24.3,30.50,NW,321,0.0,2.0,47,0.00,,CLR,0.00,VWS V14.01,2013-02-16 14:47:00,
2013-02-16 08:52:00,44.2,23.7,30.50,NNW,344,1.0,5.0,44,0.00,,CLR,0.00,VWS V14.01,2013-02-16 14:52:00,
2013-02-16 08:57:00,44.6,24.0,30.50,NNW,344,1.0,5.0,44,0.00,,CLR,0.00,VWS V14.01,2013-02-16 14:57:00,
2013-02-16 09:02:00,44.8,24.2,30.50,NNW,327,3.0,6.0,44,0.00,,CLR,0.00,VWS V14.01,2013-02-16 15:02:00,
2013-02-16 09:07:00,45.1,24.5,30.50,North,349,4.0,4.0,44,0.00,,CLR,0.00,VWS V14.01,2013-02-16 15:07:00,
2013-02-16 09:12:00,45.7,23.9,30.50,NW,315,3.0,5.0,42,0.00,,CLR,0.00,VWS V14.01,2013-02-16 15:12:00,
2013-02-16 09:17:00,46.1,21.9,30.50,NW,326,4.0,5.0,38,0.00,,CLR,0.00,VWS V14.01,2013-02-16 15:17:00,
2013-02-16 09:22:00,46.4,21.6,30.51,NNW,328,3.0,6.0,37,0.00,,CLR,0.00,VWS V14.01,2013-02-16 15:22:00,
2013-02-16 09:27:00,46.7,21.8,30.51,NNW,328,2.0,3.0,37,0.00,,CLR,0.00,VWS V14.01,2013-02-16 15:27:00,
2013-02-16 09:32:00,47.4,21.8,30.51,NNW,328,0.0,4.0,36,0.00,,CLR,0.00,VWS V14.01,2013-02-16 15:32:00,
2013-02-16 09:37:00,47.9,21.6,30.51,NNW,327,0.0,2.0,35,0.00,,CLR,0.00,VWS V14.01,2013-02-16 15:37:00,
2013-02-16 09:42:00,48.2,21.9,30.51,NNW,327,0.0,3.0,35,0.00,,CLR,0.00,VWS V14.01,2013-02-16 15:42:00,
2013-02-16 09:47:00,48.5,22.1,30.51,NNW,327,0.0,0.0,35,0.00,,CLR,0.00,VWS V14.01,2013-02-16 15:47:00,
2013-02-16 09:52:00,49.1,22.0,30.50,West,275,1.0,5.0,34,0.00,,CLR,0.00,VWS V14.01,2013-02-16 15:52:00,
2013-02-16 09:57:00,49.6,21.7,30.50,WNW,299,0.0,3.0,33,0.00,,CLR,0.00,VWS V14.01,2013-02-16 15:57:00,
2013-02-16 10:02:00,50.1,21.4,30.50,SW,234,2.0,5.0,32,0.00,,CLR,0.00,VWS V14.01,2013-02-16 16:02:00,
2013-02-16 10:07:00,50.5,22.5,30.49,West,279,0.0,4.0,33,0.00,,CLR,0.00,VWS V14.01,2013-02-16 16:07:00,
2013-02-16 10:12:00,51.1,21.5,30.49,SSW,212,0.0,4.0,31,0.00,,CLR,0.00,VWS V14.01,2013-02-16 16:12:00,
2013-02-16 10:17:00,51.7,22.1,30.49,West,267,0.0,2.0,31,0.00,,CLR,0.00,VWS V14.01,2013-02-16 16:17:00,
2013-02-16 10:22:00,52.2,22.5,30.49,SW,219,0.0,5.0,31,0.00,,CLR,0.00,VWS V14.01,2013-02-16 16:22:00,
2013-02-16 10:27:00,52.2,21.7,30.49,West,260,1.0,2.0,30,0.00,,CLR,0.00,VWS V14.01,2013-02-16 16:27:00,
2013-02-16 10:32:00,52.5,22.0,30.49,SW,226,0.0,5.0,30,0.00,,CLR,0.00,VWS V14.01,2013-02-16 16:32:00,
2013-02-16 10:37:00,52.9,21.5,30.49,SW,217,0.0,0.0,29,0.00,,CLR,0.00,VWS V14.01,2013-02-16 16:37:00,
2013-02-16 10:42:00,53.6,21.3,30.49,WSW,243,0.0,5.0,28,0.00,,CLR,0.00,VWS V14.01,2013-02-16 16:42:00,
2013-02-16 10:47:00,54.1,20.9,30.49,SSW,196,3.0,5.0,27,0.00,,CLR,0.00,VWS V14.01,2013-02-16 16:47:00,
2013-02-16 10:52:00,54.7,21.4,30.49,SW,217,0.0,5.0,27,0.00,,CLR,0.00,VWS V14.01,2013-02-16 16:52:00,
2013-02-16 10:57:00,55.4,22.0,30.49,SSW,211,2.0,5.0,27,0.00,,CLR,0.00,VWS V14.01,2013-02-16 16:57:00,
2013-02-16 11:02:00,55.9,22.4,30.49,WNW,300,3.0,6.0,27,0.00,,CLR,0.00,VWS V14.01,2013-02-16 17:02:00,
2013-02-16 11:07:00,55.9,22.4,30.49,WNW,302,5.0,7.0,27,0.00,,CLR,0.00,VWS V14.01,2013-02-16 17:07:00,
2013-02-16 11:12:00,55.6,22.2,30.49,WNW,299,2.0,7.0,27,0.00,,CLR,0.00,VWS V14.01,2013-02-16 17:12:00,
2013-02-16 11:17:00,55.6,23.0,30.49,South,191,0.0,3.0,28,0.00,,CLR,0.00,VWS V14.01,2013-02-16 17:17:00,
2013-02-16 11:22:00,56.5,22.9,30.48,NW,307,0.0,6.0,27,0.00,,CLR,0.00,VWS V14.01,2013-02-16 17:22:00,
2013-02-16 11:27:00,57.0,22.5,30.48,SW,215,0.0,4.0,26,0.00,,CLR,0.00,VWS V14.01,2013-02-16 17:27:00,
2013-02-16 11:32:00,57.3,23.6,30.48,NW,306,4.0,7.0,27,0.00,,CLR,0.00,VWS V14.01,2013-02-16 17:32:00,
2013-02-16 11:37:00,57.5,22.9,30.47,WSW,257,0.0,2.0,26,0.00,,CLR,0.00,VWS V14.01,2013-02-16 17:37:00,
2013-02-16 11:42:00,58.0,23.3,30.47,WSW,247,0.0,9.0,26,0.00,,CLR,0.00,VWS V14.01,2013-02-16 17:42:00,
2013-02-16 11:47:00,57.8,23.2,30.47,NNW,334,6.0,8.0,26,0.00,,CLR,0.00,VWS V14.01,2013-02-16 17:47:00,
2013-02-16 11:52:00,58.0,23.3,30.46,NW,318,0.0,8.0,26,0.00,,CLR,0.00,VWS V14.01,2013-02-16 17:52:00,
2013-02-16 11:57:00,58.1,23.4,30.46,West,278,3.0,6.0,26,0.00,,CLR,0.00,VWS V14.01,2013-02-16 17:57:00,
2013-02-16 12:02:00,58.1,23.4,30.46,West,280,1.0,6.0,26,0.00,,CLR,0.00,VWS V14.01,2013-02-16 18:02:00,
2013-02-16 12:07:00,58.4,23.7,30.45,WNW,298,3.0,6.0,26,0.00,,CLR,0.00,VWS V14.01,2013-02-16 18:07:00,